sat.trackr.live / text

‹ back to catalog

STARLINK-34963

NORAD 65242 · 2025-179H

PAYLOAD ACTIVE UNKNOWN

§ Identity

Operator
Country
US
Launch date
2025-08-18
Launch site
AFWTR
Launch vehicle
Mass (kg)
RCS (m²)

Purposes: comms

External: N2YO · Heavens-Above · Gunter

§ Orbital elements

Epoch: 2026-09-20T21:13:00.404544Z

Period
93.91 min
Inclination
97.2843°
Eccentricity
0.0001189
Mean motion
15.33437690 rev/d
Perigee alt
464.8 km
Apogee alt
466.4 km
Semi-major
6,843.7 km
B*
4.8993e-4
RAAN
303.2336°
Arg perigee
92.3913°
Mean anomaly
267.7466°
Rev number
6,152

§ Raw data

STARLINK-349631 65242U 25179H   26263.88403246  .00015771  00000+0  48993-3 0  99932 65242  97.2843 303.2336 0001189  92.3913 267.7466 15.33437690 61523

JSON: /api/v1/satellites/65242 · /tle

For live sub-satellite position, see the globe view (requires WebGL).

§ Visibility from observer

Set your observer location to see the next 7 days of passes ≥ 10°. The values pass through the URL so the page stays shareable.

No JS? Fill the form by hand. The geolocation button needs JavaScript.